Year,Month,Day,Hour,Minute,Value (Times are PST for temperature in C)
2018,05,13,00,00,14.90
2018,05,13,00,01,14.90
2018,05,13,00,02,14.90
2018,05,13,00,03,14.90
2018,05,13,00,04,14.90
2018,05,13,00,05,14.90
2018,05,13,00,06,14.90
2018,05,13,00,07,14.90
2018,05,13,00,08,14.90
2018,05,13,00,09,14.90
2018,05,13,00,10,14.90
2018,05,13,00,11,14.90
2018,05,13,00,12,14.80
2018,05,13,00,13,14.80
2018,05,13,00,14,14.80
2018,05,13,00,15,14.80
2018,05,13,00,16,14.80
2018,05,13,00,17,14.80
2018,05,13,00,18,14.80
2018,05,13,00,19,14.80
2018,05,13,00,20,14.70
2018,05,13,00,21,14.70
2018,05,13,00,22,14.70
2018,05,13,00,23,14.70
2018,05,13,00,24,14.70
2018,05,13,00,25,14.60
2018,05,13,00,26,14.60
2018,05,13,00,27,14.60
2018,05,13,00,28,14.60
2018,05,13,00,29,14.60
2018,05,13,00,30,14.50
2018,05,13,00,31,14.50
2018,05,13,00,32,14.40
2018,05,13,00,33,14.40
2018,05,13,00,34,14.40
2018,05,13,00,35,14.40
2018,05,13,00,36,14.30
2018,05,13,00,37,14.30
2018,05,13,00,38,14.30
2018,05,13,00,39,14.30
2018,05,13,00,40,14.20
2018,05,13,00,41,14.20
2018,05,13,00,42,14.10
2018,05,13,00,43,14.10
2018,05,13,00,44,14.10
2018,05,13,00,45,14.10
2018,05,13,00,46,14.00
2018,05,13,00,47,14.00
2018,05,13,00,48,13.90
2018,05,13,00,49,13.90
2018,05,13,00,50,13.90
2018,05,13,00,51,13.90
2018,05,13,00,52,13.90
2018,05,13,00,53,13.90
2018,05,13,00,54,13.90
2018,05,13,00,55,13.90
2018,05,13,00,56,13.80
2018,05,13,00,57,13.80
2018,05,13,00,58,13.80
2018,05,13,00,59,13.80
2018,05,13,01,00,13.80
2018,05,13,01,01,13.80
2018,05,13,01,02,13.70
2018,05,13,01,03,13.70
2018,05,13,01,04,13.70
2018,05,13,01,05,13.70
2018,05,13,01,06,13.70
2018,05,13,01,07,13.70
2018,05,13,01,08,13.70
2018,05,13,01,09,13.70
2018,05,13,01,10,13.70
2018,05,13,01,11,13.60
2018,05,13,01,12,13.60
2018,05,13,01,13,13.60
2018,05,13,01,14,13.60
2018,05,13,01,15,13.50
2018,05,13,01,16,13.50
2018,05,13,01,17,13.50
2018,05,13,01,18,13.50
2018,05,13,01,19,13.40
2018,05,13,01,20,13.40
2018,05,13,01,21,13.40
2018,05,13,01,22,13.40
2018,05,13,01,23,13.30
2018,05,13,01,24,13.30
2018,05,13,01,25,13.30
2018,05,13,01,26,13.30
2018,05,13,01,27,13.30
2018,05,13,01,28,13.30
2018,05,13,01,29,13.30
2018,05,13,01,30,13.20
2018,05,13,01,31,13.20
2018,05,13,01,32,13.20
2018,05,13,01,33,13.20
2018,05,13,01,34,13.10
2018,05,13,01,35,13.10
2018,05,13,01,36,13.10
2018,05,13,01,37,13.10
2018,05,13,01,38,13.10
2018,05,13,01,39,13.10
2018,05,13,01,40,13.00
2018,05,13,01,41,13.00
2018,05,13,01,42,13.00
2018,05,13,01,43,13.00
2018,05,13,01,44,13.00
2018,05,13,01,45,12.90
2018,05,13,01,46,12.90
2018,05,13,01,47,12.90
2018,05,13,01,48,12.90
2018,05,13,01,49,12.90
2018,05,13,01,50,12.90
2018,05,13,01,51,12.80
2018,05,13,01,52,12.80
2018,05,13,01,53,12.80
2018,05,13,01,54,12.80
2018,05,13,01,55,12.80
2018,05,13,01,56,12.80
2018,05,13,01,57,12.80
2018,05,13,01,58,12.80
2018,05,13,01,59,12.80
2018,05,13,02,00,12.80
2018,05,13,02,01,12.80
2018,05,13,02,02,12.80
2018,05,13,02,03,12.80
2018,05,13,02,04,12.80
2018,05,13,02,05,12.80
2018,05,13,02,06,12.80
2018,05,13,02,07,12.80
2018,05,13,02,08,12.80
2018,05,13,02,09,12.80
2018,05,13,02,10,12.80
2018,05,13,02,11,12.80
2018,05,13,02,12,12.70
2018,05,13,02,13,12.70
2018,05,13,02,14,12.70
2018,05,13,02,15,12.70
2018,05,13,02,16,12.70
2018,05,13,02,17,12.70
2018,05,13,02,18,12.60
2018,05,13,02,19,12.60
2018,05,13,02,20,12.60
2018,05,13,02,21,12.60
2018,05,13,02,22,12.60
2018,05,13,02,23,12.50
2018,05,13,02,24,12.50
2018,05,13,02,25,12.50
2018,05,13,02,26,12.50
2018,05,13,02,27,12.40
2018,05,13,02,28,12.40
2018,05,13,02,29,12.40
2018,05,13,02,30,12.40
2018,05,13,02,31,12.40
2018,05,13,02,32,12.40
2018,05,13,02,33,12.40
2018,05,13,02,34,12.40
2018,05,13,02,35,12.40
2018,05,13,02,36,12.40
2018,05,13,02,37,12.40
2018,05,13,02,38,12.40
2018,05,13,02,39,12.40
2018,05,13,02,40,12.40
2018,05,13,02,41,12.40
2018,05,13,02,42,12.40
2018,05,13,02,43,12.30
2018,05,13,02,44,12.30
2018,05,13,02,45,12.30
2018,05,13,02,46,12.30
2018,05,13,02,47,12.30
2018,05,13,02,48,12.30
2018,05,13,02,49,12.20
2018,05,13,02,50,12.20
2018,05,13,02,51,12.20
2018,05,13,02,52,12.20
2018,05,13,02,53,12.20
2018,05,13,02,54,12.20
2018,05,13,02,55,12.20
2018,05,13,02,56,12.20
2018,05,13,02,57,12.20
2018,05,13,02,58,12.20
2018,05,13,02,59,12.10
2018,05,13,03,00,12.10
2018,05,13,03,01,12.10
2018,05,13,03,02,12.10
2018,05,13,03,03,12.10
2018,05,13,03,04,12.10
2018,05,13,03,05,12.10
2018,05,13,03,06,12.10
2018,05,13,03,07,12.10
2018,05,13,03,08,12.10
2018,05,13,03,09,12.10
2018,05,13,03,10,12.10
2018,05,13,03,11,12.10
2018,05,13,03,12,12.10
2018,05,13,03,13,12.10
2018,05,13,03,14,12.10
2018,05,13,03,15,12.10
2018,05,13,03,16,12.10
2018,05,13,03,17,12.10
2018,05,13,03,18,12.10
2018,05,13,03,19,12.10
2018,05,13,03,20,12.10
2018,05,13,03,21,12.00
2018,05,13,03,22,12.00
2018,05,13,03,23,12.00
2018,05,13,03,24,12.00
2018,05,13,03,25,12.00
2018,05,13,03,26,12.00
2018,05,13,03,27,11.90
2018,05,13,03,28,11.90
2018,05,13,03,29,11.90
2018,05,13,03,30,11.90
2018,05,13,03,31,11.90
2018,05,13,03,32,11.90
2018,05,13,03,33,11.90
2018,05,13,03,34,11.90
2018,05,13,03,35,12.00
2018,05,13,03,36,11.90
2018,05,13,03,37,12.00
2018,05,13,03,38,12.00
2018,05,13,03,39,11.90
2018,05,13,03,40,11.90
2018,05,13,03,41,11.90
2018,05,13,03,42,11.90
2018,05,13,03,43,11.90
2018,05,13,03,44,11.90
2018,05,13,03,45,11.90
2018,05,13,03,46,11.90
2018,05,13,03,47,11.90
2018,05,13,03,48,11.90
2018,05,13,03,49,11.90
2018,05,13,03,50,11.90
2018,05,13,03,51,11.90
2018,05,13,03,52,11.80
2018,05,13,03,53,11.80
2018,05,13,03,54,11.80
2018,05,13,03,55,11.80
2018,05,13,03,56,11.80
2018,05,13,03,57,11.80
2018,05,13,03,58,11.80
2018,05,13,03,59,11.80
2018,05,13,04,00,11.80
2018,05,13,04,01,11.80
2018,05,13,04,02,11.80
2018,05,13,04,03,11.80
2018,05,13,04,04,11.80
2018,05,13,04,05,11.80
2018,05,13,04,06,11.80
2018,05,13,04,07,11.80
2018,05,13,04,08,11.80
2018,05,13,04,09,11.80
2018,05,13,04,10,11.70
2018,05,13,04,11,11.70
2018,05,13,04,12,11.70
2018,05,13,04,13,11.70
2018,05,13,04,14,11.70
2018,05,13,04,15,11.70
2018,05,13,04,16,11.70
2018,05,13,04,17,11.70
2018,05,13,04,18,11.70
2018,05,13,04,19,11.70
2018,05,13,04,20,11.70
2018,05,13,04,21,11.60
2018,05,13,04,22,11.60
2018,05,13,04,23,11.60
2018,05,13,04,24,11.60
2018,05,13,04,25,11.60
2018,05,13,04,26,11.60
2018,05,13,04,27,11.60
2018,05,13,04,28,11.60
2018,05,13,04,29,11.60
2018,05,13,04,30,11.60
2018,05,13,04,31,11.60
2018,05,13,04,32,11.60
2018,05,13,04,33,11.60
2018,05,13,04,34,11.60
2018,05,13,04,35,11.60
2018,05,13,04,36,11.60
2018,05,13,04,37,11.60
2018,05,13,04,38,11.60
2018,05,13,04,39,11.50
2018,05,13,04,40,11.50
2018,05,13,04,41,11.50
2018,05,13,04,42,11.50
2018,05,13,04,43,11.40
2018,05,13,04,44,11.40
2018,05,13,04,45,11.40
2018,05,13,04,46,11.40
2018,05,13,04,47,11.40
2018,05,13,04,48,11.30
2018,05,13,04,49,11.30
2018,05,13,04,50,11.30
2018,05,13,04,51,11.30
2018,05,13,04,52,11.30
2018,05,13,04,53,11.30
2018,05,13,04,54,11.30
2018,05,13,04,55,11.20
2018,05,13,04,56,11.20
2018,05,13,04,57,11.20
2018,05,13,04,58,11.20
2018,05,13,04,59,11.20
2018,05,13,05,00,11.20
2018,05,13,05,01,11.20
2018,05,13,05,02,11.20
2018,05,13,05,03,11.20
2018,05,13,05,04,11.20
2018,05,13,05,05,11.20
2018,05,13,05,06,11.20
2018,05,13,05,07,11.20
2018,05,13,05,08,11.20
2018,05,13,05,09,11.20
2018,05,13,05,10,11.20
2018,05,13,05,11,11.20
2018,05,13,05,12,11.20
2018,05,13,05,13,11.20
2018,05,13,05,14,11.20
2018,05,13,05,15,11.20
2018,05,13,05,16,11.20
2018,05,13,05,17,11.20
2018,05,13,05,18,11.20
2018,05,13,05,19,11.20
2018,05,13,05,20,11.30
2018,05,13,05,21,11.30
2018,05,13,05,22,11.30
2018,05,13,05,23,11.30
2018,05,13,05,24,11.30
2018,05,13,05,25,11.40
2018,05,13,05,26,11.40
2018,05,13,05,27,11.40
2018,05,13,05,28,11.40
2018,05,13,05,29,11.40
2018,05,13,05,30,11.40
2018,05,13,05,31,11.40
2018,05,13,05,32,11.40
2018,05,13,05,33,11.30
2018,05,13,05,34,11.30
2018,05,13,05,35,11.30
2018,05,13,05,36,11.30
2018,05,13,05,37,11.30
2018,05,13,05,38,11.30
2018,05,13,05,39,11.30
2018,05,13,05,40,11.30
2018,05,13,05,41,11.20
2018,05,13,05,42,11.20
2018,05,13,05,43,11.20
2018,05,13,05,44,11.20
2018,05,13,05,45,11.20
2018,05,13,05,46,11.20
2018,05,13,05,47,11.20
2018,05,13,05,48,11.10
2018,05,13,05,49,11.10
2018,05,13,05,50,11.10
2018,05,13,05,51,11.10
2018,05,13,05,52,11.10
2018,05,13,05,53,11.10
2018,05,13,05,54,11.10
2018,05,13,05,55,11.10
2018,05,13,05,56,11.10
2018,05,13,05,57,11.10
2018,05,13,05,58,11.10
2018,05,13,05,59,11.10
2018,05,13,06,00,11.10
2018,05,13,06,01,11.10
2018,05,13,06,02,11.10
2018,05,13,06,03,11.10
2018,05,13,06,04,11.10
2018,05,13,06,05,11.10
2018,05,13,06,06,11.10
2018,05,13,06,07,11.20
2018,05,13,06,08,11.20
2018,05,13,06,09,11.20
2018,05,13,06,10,11.30
2018,05,13,06,11,11.30
2018,05,13,06,12,11.30
2018,05,13,06,13,11.40
2018,05,13,06,14,11.40
2018,05,13,06,15,11.40
2018,05,13,06,16,11.50
2018,05,13,06,17,11.50
2018,05,13,06,18,11.50
2018,05,13,06,19,11.50
2018,05,13,06,20,11.50
2018,05,13,06,21,11.50
2018,05,13,06,22,11.60
2018,05,13,06,23,11.60
2018,05,13,06,24,11.60
2018,05,13,06,25,11.60
2018,05,13,06,26,11.60
2018,05,13,06,27,11.60
2018,05,13,06,28,11.60
2018,05,13,06,29,11.70
2018,05,13,06,30,11.70
2018,05,13,06,31,11.70
2018,05,13,06,32,11.70
2018,05,13,06,33,11.70
2018,05,13,06,34,11.80
2018,05,13,06,35,11.80
2018,05,13,06,36,11.80
2018,05,13,06,37,11.80
2018,05,13,06,38,11.80
2018,05,13,06,39,11.80
2018,05,13,06,40,11.80
2018,05,13,06,41,11.80
2018,05,13,06,42,11.80
2018,05,13,06,43,11.90
2018,05,13,06,44,11.90
2018,05,13,06,45,11.90
2018,05,13,06,46,11.90
2018,05,13,06,47,11.90
2018,05,13,06,48,12.00
2018,05,13,06,49,12.00
2018,05,13,06,50,12.00
2018,05,13,06,51,12.00
2018,05,13,06,52,12.00
2018,05,13,06,53,12.00
2018,05,13,06,54,12.10
2018,05,13,06,55,12.10
2018,05,13,06,56,12.10
2018,05,13,06,57,12.20
2018,05,13,06,58,12.20
2018,05,13,06,59,12.30
2018,05,13,07,00,12.30
2018,05,13,07,01,12.40
2018,05,13,07,02,12.40
2018,05,13,07,03,12.50
2018,05,13,07,04,12.50
2018,05,13,07,05,12.60
2018,05,13,07,06,12.60
2018,05,13,07,07,12.60
2018,05,13,07,08,12.70
2018,05,13,07,09,12.70
2018,05,13,07,10,12.80
2018,05,13,07,11,12.80
2018,05,13,07,12,12.90
2018,05,13,07,13,12.90
2018,05,13,07,14,13.00
2018,05,13,07,15,13.00
2018,05,13,07,16,13.10
2018,05,13,07,17,13.10
2018,05,13,07,18,13.10
2018,05,13,07,19,13.10
2018,05,13,07,20,13.20
2018,05,13,07,21,13.20
2018,05,13,07,22,13.20
2018,05,13,07,23,13.20
2018,05,13,07,24,13.20
2018,05,13,07,25,13.30
2018,05,13,07,26,13.30
2018,05,13,07,27,13.40
2018,05,13,07,28,13.40
2018,05,13,07,29,13.40
2018,05,13,07,30,13.50
2018,05,13,07,31,13.50
2018,05,13,07,32,13.60
2018,05,13,07,33,13.60
2018,05,13,07,34,13.70
2018,05,13,07,35,13.70
2018,05,13,07,36,13.70
2018,05,13,07,37,13.80
2018,05,13,07,38,13.90
2018,05,13,07,39,14.00
2018,05,13,07,40,14.10
2018,05,13,07,41,14.10
2018,05,13,07,42,14.20
2018,05,13,07,43,14.20
2018,05,13,07,44,14.20
2018,05,13,07,45,14.20
2018,05,13,07,46,14.30
2018,05,13,07,47,14.30
2018,05,13,07,48,14.30
2018,05,13,07,49,14.40
2018,05,13,07,50,14.50
2018,05,13,07,51,14.60
2018,05,13,07,52,14.60
2018,05,13,07,53,14.70
2018,05,13,07,54,14.70
2018,05,13,07,55,14.80
2018,05,13,07,56,14.90
2018,05,13,07,57,14.90
2018,05,13,07,58,14.90
2018,05,13,07,59,14.90
2018,05,13,08,00,15.00
2018,05,13,08,01,15.10
2018,05,13,08,02,15.10
2018,05,13,08,03,15.20
2018,05,13,08,04,15.20
2018,05,13,08,05,15.20
2018,05,13,08,06,15.20
2018,05,13,08,07,15.20
2018,05,13,08,08,15.20
2018,05,13,08,09,15.20
2018,05,13,08,10,15.30
2018,05,13,08,11,15.30
2018,05,13,08,12,15.40
2018,05,13,08,13,15.50
2018,05,13,08,14,15.60
2018,05,13,08,15,15.60
2018,05,13,08,16,15.60
2018,05,13,08,17,15.60
2018,05,13,08,18,15.60
2018,05,13,08,19,15.70
2018,05,13,08,20,15.70
2018,05,13,08,21,15.80
2018,05,13,08,22,15.80
2018,05,13,08,23,15.80
2018,05,13,08,24,15.80
2018,05,13,08,25,15.80
2018,05,13,08,26,15.80
2018,05,13,08,27,15.80
2018,05,13,08,28,15.90
2018,05,13,08,29,16.00
2018,05,13,08,30,16.00
2018,05,13,08,31,16.10
2018,05,13,08,32,16.10
2018,05,13,08,33,16.20
2018,05,13,08,34,16.20
2018,05,13,08,35,16.20
2018,05,13,08,36,16.20
2018,05,13,08,37,16.20
2018,05,13,08,38,16.30
2018,05,13,08,39,16.30
2018,05,13,08,40,16.30
2018,05,13,08,41,16.20
2018,05,13,08,42,16.10
2018,05,13,08,43,15.90
2018,05,13,08,44,15.80
2018,05,13,08,45,15.70
2018,05,13,08,46,15.70
2018,05,13,08,47,15.70
2018,05,13,08,48,15.60
2018,05,13,08,49,15.50
2018,05,13,08,50,15.40
2018,05,13,08,51,15.40
2018,05,13,08,52,15.30
2018,05,13,08,53,15.30
2018,05,13,08,54,15.30
2018,05,13,08,55,15.20
2018,05,13,08,56,15.20
2018,05,13,08,57,15.20
2018,05,13,08,58,15.20
2018,05,13,08,59,15.20
2018,05,13,09,00,15.20
2018,05,13,09,01,15.30
2018,05,13,09,02,15.30
2018,05,13,09,03,15.30
2018,05,13,09,04,15.30
2018,05,13,09,05,15.40
2018,05,13,09,06,15.40
2018,05,13,09,07,15.40
2018,05,13,09,08,15.50
2018,05,13,09,09,15.60
2018,05,13,09,10,15.70
2018,05,13,09,11,15.80
2018,05,13,09,12,15.80
2018,05,13,09,13,15.70
2018,05,13,09,14,15.70
2018,05,13,09,15,15.70
2018,05,13,09,16,15.70
2018,05,13,09,17,15.70
2018,05,13,09,18,15.70
2018,05,13,09,19,15.60
2018,05,13,09,20,15.60
2018,05,13,09,21,15.50
2018,05,13,09,22,15.50
2018,05,13,09,23,15.40
2018,05,13,09,24,15.40
2018,05,13,09,25,15.30
2018,05,13,09,26,15.30
2018,05,13,09,27,15.30
2018,05,13,09,28,15.40
2018,05,13,09,29,15.40
2018,05,13,09,30,15.40
2018,05,13,09,31,15.40
2018,05,13,09,32,15.40
2018,05,13,09,33,15.30
2018,05,13,09,34,15.30
2018,05,13,09,35,15.40
2018,05,13,09,36,15.40
2018,05,13,09,37,15.50
2018,05,13,09,38,15.60
2018,05,13,09,39,15.70
2018,05,13,09,40,15.70
2018,05,13,09,41,15.80
2018,05,13,09,42,15.90
2018,05,13,09,43,16.00
2018,05,13,09,44,16.10
2018,05,13,09,45,16.00
2018,05,13,09,46,16.00
2018,05,13,09,47,16.00
2018,05,13,09,48,16.00
2018,05,13,09,49,16.10
2018,05,13,09,50,16.10
2018,05,13,09,51,16.10
2018,05,13,09,52,16.10
2018,05,13,09,53,16.20
2018,05,13,09,54,16.20
2018,05,13,09,55,16.20
2018,05,13,09,56,16.30
2018,05,13,09,57,16.40
2018,05,13,09,58,16.50
2018,05,13,09,59,16.70
2018,05,13,10,00,16.70
2018,05,13,10,01,16.70
2018,05,13,10,02,16.70
2018,05,13,10,03,16.70
2018,05,13,10,04,16.70
2018,05,13,10,05,16.70
2018,05,13,10,06,16.70
2018,05,13,10,07,16.80
2018,05,13,10,08,16.90
2018,05,13,10,09,17.00
2018,05,13,10,10,17.00
2018,05,13,10,11,17.10
2018,05,13,10,12,17.10
2018,05,13,10,13,17.20
2018,05,13,10,14,17.30
2018,05,13,10,15,17.40
2018,05,13,10,16,17.40
2018,05,13,10,17,17.40
2018,05,13,10,18,17.40
2018,05,13,10,19,17.40
2018,05,13,10,20,17.30
2018,05,13,10,21,17.40
2018,05,13,10,22,17.50
2018,05,13,10,23,17.50
2018,05,13,10,24,17.50
2018,05,13,10,25,17.50
2018,05,13,10,26,17.40
2018,05,13,10,27,17.40
2018,05,13,10,28,17.30
2018,05,13,10,29,17.30
2018,05,13,10,30,17.30
2018,05,13,10,31,17.30
2018,05,13,10,32,17.40
2018,05,13,10,33,17.50
2018,05,13,10,34,17.60
2018,05,13,10,35,17.70
2018,05,13,10,36,17.80
2018,05,13,10,37,17.90
2018,05,13,10,38,17.90
2018,05,13,10,39,17.90
2018,05,13,10,40,18.00
2018,05,13,10,41,18.10
2018,05,13,10,42,18.20
2018,05,13,10,43,18.20
2018,05,13,10,44,18.20
2018,05,13,10,45,18.30
2018,05,13,10,46,18.30
2018,05,13,10,47,18.40
2018,05,13,10,48,18.50
2018,05,13,10,49,18.50
2018,05,13,10,50,18.60
2018,05,13,10,51,18.70
2018,05,13,10,52,18.70
2018,05,13,10,53,18.80
2018,05,13,10,54,18.90
2018,05,13,10,55,19.00
2018,05,13,10,56,19.10
2018,05,13,10,57,19.20
2018,05,13,10,58,19.20
2018,05,13,10,59,19.20
2018,05,13,11,00,19.20
2018,05,13,11,01,19.20
2018,05,13,11,02,19.30
2018,05,13,11,03,19.40
2018,05,13,11,04,19.50
2018,05,13,11,05,19.50
2018,05,13,11,06,19.70
2018,05,13,11,07,19.80
2018,05,13,11,08,20.00
2018,05,13,11,09,20.00
2018,05,13,11,10,20.10
2018,05,13,11,11,20.20
2018,05,13,11,12,20.30
2018,05,13,11,13,20.30
2018,05,13,11,14,20.30
2018,05,13,11,15,20.40
2018,05,13,11,16,20.50
2018,05,13,11,17,20.70
2018,05,13,11,18,20.70
2018,05,13,11,19,20.70
2018,05,13,11,20,20.70
2018,05,13,11,21,20.60
2018,05,13,11,22,20.50
2018,05,13,11,23,20.40
2018,05,13,11,24,20.50
2018,05,13,11,25,20.60
2018,05,13,11,26,20.70
2018,05,13,11,27,20.80
2018,05,13,11,28,20.80
2018,05,13,11,29,20.80
2018,05,13,11,30,20.80
2018,05,13,11,31,20.80
2018,05,13,11,32,20.80
2018,05,13,11,33,20.90
2018,05,13,11,34,20.90
2018,05,13,11,35,20.90
2018,05,13,11,36,20.90
2018,05,13,11,37,20.90
2018,05,13,11,38,20.90
2018,05,13,11,39,20.80
2018,05,13,11,40,20.80
2018,05,13,11,41,20.80
2018,05,13,11,42,20.80
2018,05,13,11,43,20.80
2018,05,13,11,44,20.80
2018,05,13,11,45,20.90
2018,05,13,11,46,21.00
2018,05,13,11,47,21.10
2018,05,13,11,48,21.20
2018,05,13,11,49,21.20
2018,05,13,11,50,21.30
2018,05,13,11,51,21.30
2018,05,13,11,52,21.30
2018,05,13,11,53,21.30
2018,05,13,11,54,21.30
2018,05,13,11,55,21.30
2018,05,13,11,56,21.40
2018,05,13,11,57,21.40
2018,05,13,11,58,21.40
2018,05,13,11,59,21.50
2018,05,13,12,00,21.50
2018,05,13,12,01,21.60
2018,05,13,12,02,21.60
2018,05,13,12,03,21.60
2018,05,13,12,04,21.60
2018,05,13,12,05,21.70
2018,05,13,12,06,21.80
2018,05,13,12,07,21.80
2018,05,13,12,08,21.80
2018,05,13,12,09,21.80
2018,05,13,12,10,21.80
2018,05,13,12,11,21.90
2018,05,13,12,12,21.90
2018,05,13,12,13,22.00
2018,05,13,12,14,22.10
2018,05,13,12,15,22.10
2018,05,13,12,16,22.20
2018,05,13,12,17,22.30
2018,05,13,12,18,22.30
2018,05,13,12,19,22.40
2018,05,13,12,20,22.40
2018,05,13,12,21,22.40
2018,05,13,12,22,22.30
2018,05,13,12,23,22.30
2018,05,13,12,24,22.30
2018,05,13,12,25,22.30
2018,05,13,12,26,22.20
2018,05,13,12,27,22.20
2018,05,13,12,28,22.30
2018,05,13,12,29,22.40
2018,05,13,12,30,22.50
2018,05,13,12,31,22.50
2018,05,13,12,32,22.50
2018,05,13,12,33,22.50
2018,05,13,12,34,22.60
2018,05,13,12,35,22.70
2018,05,13,12,36,22.80
2018,05,13,12,37,22.90
2018,05,13,12,38,23.00
2018,05,13,12,39,23.20
2018,05,13,12,40,23.10
2018,05,13,12,41,23.10
2018,05,13,12,42,23.10
2018,05,13,12,43,23.10
2018,05,13,12,44,23.10
2018,05,13,12,45,23.00
2018,05,13,12,46,23.10
2018,05,13,12,47,23.00
2018,05,13,12,48,22.90
2018,05,13,12,49,22.90
2018,05,13,12,50,22.90
2018,05,13,12,51,22.90
2018,05,13,12,52,22.90
2018,05,13,12,53,22.90
2018,05,13,12,54,22.90
2018,05,13,12,55,22.90
2018,05,13,12,56,22.90
2018,05,13,12,57,22.90
2018,05,13,12,58,22.80
2018,05,13,12,59,22.70
2018,05,13,13,00,22.70
2018,05,13,13,01,22.70
2018,05,13,13,02,22.70
2018,05,13,13,03,22.80
2018,05,13,13,04,22.80
2018,05,13,13,05,22.70
2018,05,13,13,06,22.80
2018,05,13,13,07,22.80
2018,05,13,13,08,22.90
2018,05,13,13,09,22.90
2018,05,13,13,10,22.90
2018,05,13,13,11,22.90
2018,05,13,13,12,22.80
2018,05,13,13,13,22.70
2018,05,13,13,14,22.70
2018,05,13,13,15,22.70
2018,05,13,13,16,22.70
2018,05,13,13,17,22.70
2018,05,13,13,18,22.70
2018,05,13,13,19,22.60
2018,05,13,13,20,22.60
2018,05,13,13,21,22.50
2018,05,13,13,22,22.40
2018,05,13,13,23,22.40
2018,05,13,13,24,22.30
2018,05,13,13,25,22.30
2018,05,13,13,26,22.30
2018,05,13,13,27,22.30
2018,05,13,13,28,22.30
2018,05,13,13,29,22.40
2018,05,13,13,30,22.40
2018,05,13,13,31,22.40
2018,05,13,13,32,22.50
2018,05,13,13,33,22.60
2018,05,13,13,34,22.60
2018,05,13,13,35,22.70
2018,05,13,13,36,22.70
2018,05,13,13,37,22.80
2018,05,13,13,38,22.80
2018,05,13,13,39,22.90
2018,05,13,13,40,22.90
2018,05,13,13,41,22.90
2018,05,13,13,42,22.80
2018,05,13,13,43,22.80
2018,05,13,13,44,22.80
2018,05,13,13,45,22.90
2018,05,13,13,46,22.80
2018,05,13,13,47,22.70
2018,05,13,13,48,22.60
2018,05,13,13,49,22.60
2018,05,13,13,50,22.60
2018,05,13,13,51,22.60
2018,05,13,13,52,22.50
2018,05,13,13,53,22.60
2018,05,13,13,54,22.60
2018,05,13,13,55,22.60
2018,05,13,13,56,22.60
2018,05,13,13,57,22.60
2018,05,13,13,58,22.70
2018,05,13,13,59,22.70
2018,05,13,14,00,22.80
2018,05,13,14,01,22.90
2018,05,13,14,02,23.00
2018,05,13,14,03,23.20
2018,05,13,14,04,23.30
2018,05,13,14,05,23.50
2018,05,13,14,06,23.60
2018,05,13,14,07,23.60
2018,05,13,14,08,23.70
2018,05,13,14,09,23.70
2018,05,13,14,10,23.70
2018,05,13,14,11,23.80
2018,05,13,14,12,23.80
2018,05,13,14,13,23.80
2018,05,13,14,14,23.70
2018,05,13,14,15,23.70
2018,05,13,14,16,23.70
2018,05,13,14,17,23.70
2018,05,13,14,18,23.70
2018,05,13,14,19,23.80
2018,05,13,14,20,23.80
2018,05,13,14,21,23.80
2018,05,13,14,22,23.80
2018,05,13,14,23,23.80
2018,05,13,14,24,23.80
2018,05,13,14,25,23.80
2018,05,13,14,26,23.80
2018,05,13,14,27,23.80
2018,05,13,14,28,23.90
2018,05,13,14,29,24.00
2018,05,13,14,30,24.10
2018,05,13,14,31,24.20
2018,05,13,14,32,24.20
2018,05,13,14,33,24.20
2018,05,13,14,34,24.30
2018,05,13,14,35,24.30
2018,05,13,14,36,24.30
2018,05,13,14,37,24.30
2018,05,13,14,38,24.40
2018,05,13,14,39,24.40
2018,05,13,14,40,24.40
2018,05,13,14,41,24.50
2018,05,13,14,42,24.50
2018,05,13,14,43,24.70
2018,05,13,14,44,24.80
2018,05,13,14,45,25.00
2018,05,13,14,46,25.00
2018,05,13,14,47,25.10
2018,05,13,14,48,25.10
2018,05,13,14,49,25.10
2018,05,13,14,50,25.10
2018,05,13,14,51,25.10
2018,05,13,14,52,25.20
2018,05,13,14,53,25.20
2018,05,13,14,54,25.10
2018,05,13,14,55,25.10
2018,05,13,14,56,25.00
2018,05,13,14,57,25.00
2018,05,13,14,58,25.00
2018,05,13,14,59,25.10
2018,05,13,15,00,25.30
2018,05,13,15,01,25.30
2018,05,13,15,02,25.30
2018,05,13,15,03,25.30
2018,05,13,15,04,25.30
2018,05,13,15,05,25.30
2018,05,13,15,06,25.40
2018,05,13,15,07,25.40
2018,05,13,15,08,25.40
2018,05,13,15,09,25.40
2018,05,13,15,10,25.50
2018,05,13,15,11,25.50
2018,05,13,15,12,25.50
2018,05,13,15,13,25.50
2018,05,13,15,14,25.50
2018,05,13,15,15,25.60
2018,05,13,15,16,25.70
2018,05,13,15,17,25.70
2018,05,13,15,18,25.80
2018,05,13,15,19,25.80
2018,05,13,15,20,25.80
2018,05,13,15,21,25.80
2018,05,13,15,22,25.80
2018,05,13,15,23,25.80
2018,05,13,15,24,25.80
2018,05,13,15,25,25.80
2018,05,13,15,26,25.80
2018,05,13,15,27,25.90
2018,05,13,15,28,26.00
2018,05,13,15,29,26.10
2018,05,13,15,30,26.20
2018,05,13,15,31,26.30
2018,05,13,15,32,26.40
2018,05,13,15,33,26.50
2018,05,13,15,34,26.60
2018,05,13,15,35,26.60
2018,05,13,15,36,26.60
2018,05,13,15,37,26.50
2018,05,13,15,38,26.40
2018,05,13,15,39,26.40
2018,05,13,15,40,26.40
2018,05,13,15,41,26.40
2018,05,13,15,42,26.50
2018,05,13,15,43,26.50
2018,05,13,15,44,26.50
2018,05,13,15,45,26.60
2018,05,13,15,46,26.60
2018,05,13,15,47,26.60
2018,05,13,15,48,26.50
2018,05,13,15,49,26.40
2018,05,13,15,50,26.40
2018,05,13,15,51,26.40
2018,05,13,15,52,26.40
2018,05,13,15,53,26.40
2018,05,13,15,54,26.30
2018,05,13,15,55,26.30
2018,05,13,15,56,26.20
2018,05,13,15,57,26.10
2018,05,13,15,58,26.00
2018,05,13,15,59,25.80
2018,05,13,16,00,25.80
2018,05,13,16,01,25.80
2018,05,13,16,02,25.70
2018,05,13,16,03,25.70
2018,05,13,16,04,25.70
2018,05,13,16,05,25.70
2018,05,13,16,06,25.70
2018,05,13,16,07,25.70
2018,05,13,16,08,25.70
2018,05,13,16,09,25.70
2018,05,13,16,10,25.60
2018,05,13,16,11,25.60
2018,05,13,16,12,25.60
2018,05,13,16,13,25.60
2018,05,13,16,14,25.70
2018,05,13,16,15,25.70
2018,05,13,16,16,25.70
2018,05,13,16,17,25.70
2018,05,13,16,18,25.70
2018,05,13,16,19,25.70
2018,05,13,16,20,25.70
2018,05,13,16,21,25.70
2018,05,13,16,22,25.70
2018,05,13,16,23,25.70
2018,05,13,16,24,25.70
2018,05,13,16,25,25.70
2018,05,13,16,26,25.70
2018,05,13,16,27,25.70
2018,05,13,16,28,25.70
2018,05,13,16,29,25.70
2018,05,13,16,30,25.60
2018,05,13,16,31,25.60
2018,05,13,16,32,25.60
2018,05,13,16,33,25.70
2018,05,13,16,34,25.60
2018,05,13,16,35,25.60
2018,05,13,16,36,25.60
2018,05,13,16,37,25.70
2018,05,13,16,38,25.70
2018,05,13,16,39,25.70
2018,05,13,16,40,25.70
2018,05,13,16,41,25.70
2018,05,13,16,42,25.80
2018,05,13,16,43,25.80
2018,05,13,16,44,25.90
2018,05,13,16,45,25.90
2018,05,13,16,46,25.90
2018,05,13,16,47,25.90
2018,05,13,16,48,25.90
2018,05,13,16,49,25.90
2018,05,13,16,50,25.90
2018,05,13,16,51,26.00
2018,05,13,16,52,26.00
2018,05,13,16,53,26.00
2018,05,13,16,54,26.10
2018,05,13,16,55,26.10
2018,05,13,16,56,26.10
2018,05,13,16,57,26.10
2018,05,13,16,58,26.10
2018,05,13,16,59,26.10
2018,05,13,17,00,26.10
2018,05,13,17,01,26.10
2018,05,13,17,02,26.10
2018,05,13,17,03,26.10
2018,05,13,17,04,26.10
2018,05,13,17,05,26.10
2018,05,13,17,06,26.10
2018,05,13,17,07,26.10
2018,05,13,17,08,26.10
2018,05,13,17,09,26.10
2018,05,13,17,10,26.10
2018,05,13,17,11,26.10
2018,05,13,17,12,26.10
2018,05,13,17,13,26.10
2018,05,13,17,14,26.10
2018,05,13,17,15,26.10
2018,05,13,17,16,26.10
2018,05,13,17,17,26.10
2018,05,13,17,18,26.10
2018,05,13,17,19,26.20